User: anonymous   Login
Location: Unspecified
(0.0000°N, 0.0000°E)
Time: 19:23:39
(UTC+00:00)
Language:

STARLINK-5600 - Orbit

View from above orbital plane
View from above orbital plane
View from above satellite
View from above satellite

Ground track
Ground track

The orbit is defined by the following mean orbital elements,

1 57357U          26145.53545285 +.00000000 +00000-0 +94026-4 0 00000
2 57357  43.0031 167.5417 0001271 265.6182  94.4524 15.27574527    05
Epoch (UTC): 25 May 2026 12:51:03
Eccentricity: 0.0001271
inclination: 43.0031°
perigee height: 482 km
apogee height: 484 km
right ascension of ascending node: 167.5417°
argument of perigee: 265.6182°
revolutions per day: 15.27574527
mean anomaly at epoch: 94.4524°

The dashed part of the orbit path shows where the satellite is in the earth's shadow,  

DLR